Location: Schommer Observatory
(40.5200°N, 74.4500°W)
Time: 06:30:45
(UTC-04:00)

Envisat - Visible Passes

Search period start: 21 July 2017 00:00
Search period end: 31 July 2017 00:00
Orbit: 764 x 766 km, 98.2° (Epoch: 20 July)

Date Brightness Start Highest point End Pass type
(mag) Time Alt. Az. Time Alt. Az. Time Alt. Az.
21 Jul 3.3 21:04:13 10° S 21:09:16 70° WSW 21:14:21 10° NNW visible
22 Jul 5.5 22:08:36 10° SW 22:11:56 17° W 22:15:17 10° NW visible
23 Jul 4.3 21:30:14 10° SSW 21:34:57 39° W 21:39:42 10° NNW visible
24 Jul 3.1 20:53:05 10° SSE 20:58:10 87° WSW 21:03:17 10° NNW visible
25 Jul 5.2 21:56:51 10° SW 22:00:45 22° W 22:04:40 10° NW visible
26 Jul 3.9 21:18:55 10° S 21:23:49 49° W 21:28:46 10° NNW visible
27 Jul 3.0 20:42:03 10° SSE 20:47:07 74° ENE 20:52:11 10° N visible
27 Jul 5.7 22:24:38 10° WSW 22:26:38 12° W 22:28:39 10° WNW visible
28 Jul 4.8 21:45:16 10° SSW 21:49:34 28° W 21:53:55 10° NW visible
29 Jul 3.5 21:07:41 10° S 21:12:42 63° W 21:17:46 10° NNW visible
30 Jul 5.5 22:12:24 10° SW 22:15:25 16° W 22:18:28 10° NW visible
